TimePST,TemperatureF,Dew PointF,Humidity,Sea Level PressureIn,VisibilityMPH,Wind Direction,Wind SpeedMPH,Gust SpeedMPH,PrecipitationIn,Events,Conditions,WindDirDegrees,DateUTC
12:56 AM,43.0,6.1,22,30.05,10.0,NNW,15.0,21.9,N/A,,Clear,330,2013-02-24 08:56:00
1:56 AM,43.0,6.1,22,30.04,10.0,NW,15.0,20.7,N/A,,Clear,320,2013-02-24 09:56:00
2:56 AM,43.0,7.0,23,30.03,10.0,NNW,18.4,31.1,N/A,,Clear,340,2013-02-24 10:56:00
3:56 AM,43.0,8.1,24,30.05,10.0,NNW,15.0,27.6,N/A,,Clear,330,2013-02-24 11:56:00
4:56 AM,42.1,8.1,25,30.06,10.0,NNW,13.8,21.9,N/A,,Clear,330,2013-02-24 12:56:00
5:56 AM,42.1,8.1,25,30.07,10.0,NNW,11.5,19.6,N/A,,Clear,330,2013-02-24 13:56:00
6:56 AM,43.0,8.1,24,30.09,10.0,NW,17.3,26.5,N/A,,Clear,320,2013-02-24 14:56:00
7:56 AM,44.1,8.1,23,30.13,10.0,NNW,20.7,28.8,N/A,,Clear,330,2013-02-24 15:56:00
8:56 AM,46.0,8.1,21,30.14,10.0,NNW,19.6,35.7,N/A,,Partly Cloudy,340,2013-02-24 16:56:00
9:56 AM,48.9,7.0,18,30.15,10.0,NNW,18.4,27.6,N/A,,Partly Cloudy,340,2013-02-24 17:56:00
10:56 AM,50.0,5.0,16,30.13,10.0,NNW,20.7,28.8,N/A,,Partly Cloudy,340,2013-02-24 18:56:00
11:56 AM,52.0,5.0,15,30.11,10.0,NW,19.6,31.1,N/A,,Partly Cloudy,310,2013-02-24 19:56:00
12:56 PM,54.0,1.9,12,30.09,10.0,NNW,11.5,24.2,N/A,,Partly Cloudy,330,2013-02-24 20:56:00
1:56 PM,55.0,-0.0,11,30.08,10.0,NW,12.7,21.9,N/A,,Clear,320,2013-02-24 21:56:00
2:56 PM,55.9,-0.0,10,30.09,10.0,NW,11.5,24.2,N/A,,Partly Cloudy,310,2013-02-24 22:56:00
3:56 PM,55.9,-0.9,10,30.09,10.0,North,15.0,25.3,N/A,,Partly Cloudy,360,2013-02-24 23:56:00
4:56 PM,55.0,1.0,11,30.09,10.0,NNW,9.2,18.4,N/A,,Partly Cloudy,330,2013-02-25 00:56:00
5:56 PM,53.1,1.9,12,30.10,10.0,NE,6.9,-,N/A,,Clear,40,2013-02-25 01:56:00
6:56 PM,51.1,1.9,13,30.12,10.0,North,3.5,-,N/A,,Clear,360,2013-02-25 02:56:00
7:56 PM,51.1,3.0,14,30.14,10.0,NNE,4.6,16.1,N/A,,Clear,20,2013-02-25 03:56:00
8:56 PM,46.9,9.0,21,30.16,10.0,North,10.4,-,N/A,,Partly Cloudy,10,2013-02-25 04:56:00
9:56 PM,46.0,10.9,24,30.17,10.0,NNE,11.5,-,N/A,,Partly Cloudy,30,2013-02-25 05:56:00
10:56 PM,44.1,10.9,26,30.19,10.0,East,4.6,-,N/A,,Partly Cloudy,100,2013-02-25 06:56:00
11:56 PM,43.0,10.9,27,30.20,10.0,ENE,5.8,-,N/A,,Partly Cloudy,70,2013-02-25 07:56:00